Stuttgart, AR

6:40 PM CST on December 15, 2017 (GMT -0600)
Stuttgart Municipal

Weather History for KSGT - March, 2013

Change the Weather History Date:

Thursday, March 28, 2013

  Actual Average Record
Temperature  
Mean Temperature 54 °F -  
Max Temperature 68 °F 64 °F 82 °F (1997)
Min Temperature 41 °F 46 °F 39 °F (2011)
Degree Days  
Heating Degree Days 10    
Growing Degree Days 4 (Base 50)    
Moisture  
Dew Point 39 °F    
Average Humidity 55    
Maximum Humidity 76    
Minimum Humidity 40    
Precipitation  
Precipitation 0.00 in - - ()
Sea Level Pressure  
Sea Level Pressure 30.28 in    
Wind  
Wind Speed 10 mph (SSE)    
Max Wind Speed 13 mph    
Max Gust Speed -    
Visibility 10 miles    
Events      
Averages and records for this station are not official NWS values.
T = Trace of Precipitation, MM = Missing Value Source: NWS Daily Summary

Daily Weather History Graph

Daily Weather History Graph

Search for Another Location

Airport or City:

Trip Planner

Search our weather history database for the weather conditions in past years. The results will help you decide how hot, cold, wet, or windy it might be!

Date:

Astronomy

Mar. 28, 2013 Rise Set
Actual Time 6:58 AM CDT 7:24 PM CDT
Civil Twilight 6:33 AM CDT 7:49 PM CDT
Nautical Twilight 6:03 AM CDT 8:19 PM CDT
Astronomical Twilight 5:33 AM CDT 8:49 PM CDT
Moon 9:10 PM CDT (3/28) 7:31 AM CDT (3/28)
Length of Visible Light 13h 16m
Length of Day
12h 26m
Full, 98% of the Moon is Illuminated
Mar 28
Full
Apr 2
Last Quarter
Apr 10
New
Apr 18
First Quarter
Apr 25
Full

Hourly Weather History & Observations

Time (CDT) Temp. Dew Point Humidity Pressure Visibility Wind Dir Wind Speed Gust Speed Precip Events Conditions
12:15 AM 41.0 °F 33.8 °F 76% 30.33 in 10.0 mi North - - N/A   Clear
12:35 AM 44.6 °F 33.8 °F 66% 30.33 in 10.0 mi North - - N/A   Clear
12:55 AM 44.6 °F 32.0 °F 61% 30.33 in 10.0 mi North - - N/A   Clear
1:15 AM 42.8 °F 33.8 °F 70% 30.33 in 10.0 mi North - - N/A   Clear
1:35 AM 44.6 °F 32.0 °F 61% 30.33 in 10.0 mi North - - N/A   Clear
1:55 AM 44.6 °F 32.0 °F 61% 30.33 in 10.0 mi North - - N/A   Clear
2:15 AM 42.8 °F 32.0 °F 66% 30.33 in 10.0 mi North - - N/A   Clear
2:35 AM 42.8 °F 30.2 °F 61% 30.32 in 10.0 mi North - - N/A   Clear
2:55 AM 41.0 °F 30.2 °F 65% 30.31 in 10.0 mi North - - N/A   Mostly Cloudy
3:15 AM 42.8 °F 33.8 °F 70% 30.31 in 10.0 mi North - - N/A   Overcast
3:35 AM 44.6 °F 33.8 °F 66% 30.31 in 10.0 mi North - - N/A   Overcast
3:55 AM 44.6 °F 32.0 °F 61% 30.30 in 10.0 mi North - - N/A   Overcast
4:15 AM 44.6 °F 33.8 °F 66% 30.30 in 10.0 mi North - - N/A   Overcast
4:35 AM 44.6 °F 33.8 °F 66% 30.30 in 10.0 mi North - - N/A   Overcast
4:55 AM 44.6 °F 33.8 °F 66% 30.30 in 10.0 mi North - - N/A   Overcast
5:15 AM 44.6 °F 33.8 °F 66% 30.30 in 10.0 mi North - - N/A   Overcast
5:35 AM 44.6 °F 33.8 °F 66% 30.30 in 10.0 mi North - - N/A   Overcast
5:55 AM 44.6 °F 33.8 °F 66% 30.30 in 10.0 mi North - - N/A   Overcast
6:15 AM 44.6 °F 33.8 °F 66% 30.30 in 10.0 mi North - - N/A   Mostly Cloudy
6:35 AM 42.8 °F 33.8 °F 70% 30.31 in 10.0 mi North - - N/A   Partly Cloudy
6:55 AM 42.8 °F 32.0 °F 66% 30.31 in 10.0 mi North - - N/A   Clear
7:15 AM 42.8 °F 32.0 °F 66% 30.31 in 10.0 mi North - - N/A   Clear
7:35 AM 42.8 °F 32.0 °F 66% 30.32 in 10.0 mi North - - N/A   Clear
7:55 AM 44.6 °F 32.0 °F 61% 30.33 in 10.0 mi North - - N/A   Clear
8:15 AM 44.6 °F 33.8 °F 66% 30.33 in 10.0 mi North - - N/A   Clear
8:35 AM 46.4 °F 32.0 °F 57% 30.33 in 10.0 mi North - - N/A   Clear
8:55 AM 48.2 °F 33.8 °F 58% 30.33 in 10.0 mi SSE 9.2 mph - N/A   Clear
9:15 AM 48.2 °F 33.8 °F 58% 30.34 in 10.0 mi SSE 11.5 mph - N/A   Clear
9:35 AM 51.8 °F 35.6 °F 54% 30.34 in 10.0 mi SSE 10.4 mph - N/A   Clear
9:55 AM 53.6 °F 33.8 °F 47% 30.34 in 10.0 mi South 12.7 mph - N/A   Clear
10:15 AM 55.4 °F 35.6 °F 47% 30.34 in 10.0 mi South 11.5 mph - N/A   Clear
10:35 AM 57.2 °F 35.6 °F 44% 30.34 in 10.0 mi South 10.4 mph - N/A   Clear
10:55 AM 57.2 °F 37.4 °F 48% 30.34 in 10.0 mi SSE 10.4 mph - N/A   Clear
11:15 AM 59.0 °F 37.4 °F 45% 30.34 in 10.0 mi South 8.1 mph - N/A   Clear
11:35 AM 60.8 °F 39.2 °F 45% 30.34 in 10.0 mi SSE 6.9 mph - N/A   Clear
11:55 AM 62.6 °F 42.8 °F 48% 30.33 in 10.0 mi South 6.9 mph - N/A   Clear
12:15 PM 64.4 °F 44.6 °F 49% 30.32 in 10.0 mi SSW 5.8 mph - N/A   Clear
12:35 PM 64.4 °F 44.6 °F 49% 30.32 in 10.0 mi South 6.9 mph - N/A   Clear
12:55 PM 66.2 °F 44.6 °F 46% 30.31 in 10.0 mi SW 5.8 mph - N/A   Clear
1:15 PM 66.2 °F 44.6 °F 46% 30.30 in 10.0 mi SW 6.9 mph - N/A   Clear
1:35 PM 66.2 °F 44.6 °F 46% 30.29 in 10.0 mi SW 9.2 mph - N/A   Clear
1:55 PM 66.2 °F 44.6 °F 46% 30.28 in 10.0 mi South 6.9 mph - N/A   Clear
2:15 PM 66.2 °F 44.6 °F 46% 30.27 in 10.0 mi South 4.6 mph - N/A   Clear
2:35 PM 68.0 °F 44.6 °F 43% 30.26 in 10.0 mi South 8.1 mph - N/A   Clear
2:55 PM 68.0 °F 44.6 °F 43% 30.25 in 10.0 mi South 12.7 mph - N/A   Clear
3:15 PM 68.0 °F 44.6 °F 43% 30.24 in 10.0 mi SE 9.2 mph - N/A   Clear
3:35 PM 68.0 °F 44.6 °F 43% 30.24 in 10.0 mi SSE 10.4 mph - N/A   Clear
3:55 PM 68.0 °F 42.8 °F 40% 30.23 in 10.0 mi SE 10.4 mph - N/A   Clear
4:15 PM 68.0 °F 42.8 °F 40% 30.22 in 10.0 mi SE 12.7 mph - N/A   Clear
4:35 PM 68.0 °F 42.8 °F 40% 30.21 in 10.0 mi SE 12.7 mph - N/A   Clear
4:55 PM 68.0 °F 42.8 °F 40% 30.22 in 10.0 mi SE 12.7 mph - N/A   Clear
5:15 PM 68.0 °F 42.8 °F 40% 30.22 in 10.0 mi SE 12.7 mph - N/A   Clear
5:35 PM 68.0 °F 42.8 °F 40% 30.22 in 10.0 mi SE 11.5 mph - N/A   Clear
5:55 PM 66.2 °F 42.8 °F 43% 30.22 in 10.0 mi SE 10.4 mph - N/A   Clear
6:15 PM 66.2 °F 44.6 °F 46% 30.22 in 10.0 mi SE 10.4 mph - N/A   Clear
6:35 PM 66.2 °F 42.8 °F 43% 30.21 in 10.0 mi SE 12.7 mph - N/A   Clear
6:55 PM 64.4 °F 42.8 °F 45% 30.22 in 10.0 mi SE 9.2 mph - N/A   Clear
7:15 PM 64.4 °F 42.8 °F 45% 30.22 in 10.0 mi SE 10.4 mph - N/A   Clear
7:35 PM 62.6 °F 42.8 °F 48% 30.22 in 10.0 mi SE 8.1 mph - N/A   Clear
7:55 PM 62.6 °F 44.6 °F 52% 30.22 in 10.0 mi SE 9.2 mph - N/A   Clear
8:15 PM 60.8 °F 44.6 °F 55% 30.23 in 10.0 mi SSE 9.2 mph - N/A   Clear
8:35 PM 60.8 °F 42.8 °F 52% 30.23 in 10.0 mi SSE 10.4 mph - N/A   Clear
8:55 PM 60.8 °F 42.8 °F 52% 30.23 in 10.0 mi SSE 10.4 mph - N/A   Clear
9:15 PM 59.0 °F 42.8 °F 55% 30.24 in 10.0 mi SE 9.2 mph - N/A   Clear
9:35 PM 57.2 °F 41.0 °F 55% 30.24 in 10.0 mi SE 10.4 mph - N/A   Clear
9:55 PM 57.2 °F 41.0 °F 55% 30.25 in 9.0 mi SE 8.1 mph - N/A   Clear
10:15 PM 55.4 °F 42.8 °F 63% 30.25 in 10.0 mi SSE 9.2 mph - N/A   Clear
10:35 PM 55.4 °F 42.8 °F 63% 30.25 in 10.0 mi SE 9.2 mph - N/A   Clear
10:55 PM 55.4 °F 41.0 °F 58% 30.25 in 10.0 mi SE 10.4 mph - N/A   Clear
11:15 PM 55.4 °F 41.0 °F 58% 30.25 in 10.0 mi SSE 10.4 mph - N/A   Clear
11:35 PM 55.4 °F 41.0 °F 58% 30.25 in 10.0 mi SSE 9.2 mph - N/A   Clear
11:55 PM 55.4 °F 39.2 °F 54% 30.24 in 10.0 mi SSE 9.2 mph - N/A   Clear